Terug naar catalogus

THORAD AGENA D DEB

ActiefSSO
NORAD 42500·DEBRIS·🇺🇸 United States

Gelanceerd Apr 8, 1970 vanaf Vandenberg Space Force Base

Loading…

Volgende Passages (komende 24 uur)

TLE

VersSource: Space-Track

Epoch: Sep 11, 2026, 10:10 UTC

1 42500U 70025RE  26254.42379896  .00000063  00000-0  15442-3 0  9990
2 42500  99.4250 111.0074 0011049  29.9433  92.2697 13.54046150632556

Volg THORAD AGENA D DEB in realtime met AllMySat

Download on the App Store